Theta_e
304 305 306 306 305 305 306 306 305 305 306 308 310 311 312 312 308 305 308 314 307 300 302 304 303 299 298 296 293 298 296 296 296 291 291 291 290 292 291 293 291 290 289 288 290 286 284 301 300 293 298 302 302 301
303 304 304 305 305 306 306 306 305 305 305 307 309 310 312 312 309 306 306 311 310 302 302 308 307 308 305 303 299 299 296 294 297 293 293 293 291 292 291 287 296 290 293 289 290 292 301 303 302 303 303 301 301 301
304 304 304 305 305 306 306 305 305 304 305 306 308 309 311 312 309 306 307 309 307 301 302 303 302 308 309 308 309 297 299 299 298 301 295 294 289 294 289 290 292 295 300 294 294 298 299 300 304 303 303 302 303 303
303 303 304 304 305 306 306 306 305 304 305 306 307 308 310 311 309 307 305 308 305 298 293 299 309 304 309 309 306 306 302 302 300 297 293 292 290 297 293 294 293 295 297 295 295 298 300 300 301 301 302 303 302 302
303 303 303 304 305 306 306 306 305 305 305 305 307 308 310 311 308 307 307 307 306 299 292 297 304 307 308 306 304 304 301 298 295 291 290 290 295 296 296 296 293 298 296 293 292 299 299 298 301 302 301 300 299 299
303 303 303 304 305 306 306 306 305 305 305 306 307 308 311 310 307 304 297 305 306 303 297 292 302 302 304 304 302 301 301 296 295 292 292 297 301 297 292 291 298 299 301 302 298 300 300 300 301 301 298 299 300 299
303 303 303 304 304 306 306 306 305 305 306 306 307 308 310 307 305 300 298 303 306 306 295 292 293 300 304 303 303 300 302 298 294 292 294 296 298 298 294 290 298 300 301 301 301 300 297 298 296 299 299 299 300 300
303 303 304 304 304 305 306 306 305 305 305 306 307 309 307 304 303 300 304 305 306 300 298 290 291 296 304 299 297 302 298 298 297 297 298 296 298 297 292 297 299 300 300 300 299 298 297 298 299 298 299 299 297 295
304 304 304 304 304 305 305 306 305 305 305 307 306 305 304 303 300 301 305 305 305 298 292 290 288 289 301 301 301 299 298 292 299 294 295 297 295 291 296 298 298 299 297 295 297 297 298 296 296 296 297 297 294 293
303 304 304 304 304 305 306 306 306 305 306 306 305 299 294 299 306 305 299 294 294 295 293 291 295 290 297 298 295 294 295 293 290 295 300 294 294 300 300 300 300 298 297 297 294 294 295 294 295 295 296 294 293 294
303 304 304 304 305 306 306 306 306 306 306 301 297 293 300 306 301 297 291 291 292 289 293 293 294 291 300 292 292 296 292 295 289 294 293 292 293 297 300 300 298 299 298 297 298 297 297 297 295 295 293 294 294 293
303 304 303 304 305 305 306 306 306 304 301 300 302 302 300 295 293 289 289 292 289 288 294 293 295 296 296 300 293 295 292 294 288 298 293 290 294 298 299 297 298 298 297 297 298 297 298 297 296 294 294 295 294 292
303 303 303 304 305 305 306 306 306 304 304 303 300 294 293 292 286 286 284 287 288 295 296 296 295 299 298 296 294 294 290 290 297 292 291 293 297 298 298 297 297 297 298 298 298 298 297 296 296 295 295 296 294 292
302 303 303 304 305 305 305 306 304 304 301 295 291 285 289 287 290 292 294 293 300 299 298 298 296 294 297 293 295 290 294 295 289 288 288 295 297 297 298 297 296 297 298 297 297 297 295 295 294 295 297 296 293 292
302 303 303 304 304 304 304 305 304 304 298 293 291 287 290 296 298 299 301 300 302 302 301 297 296 296 293 292 294 293 290 288 290 290 294 296 299 298 296 296 297 297 297 297 297 296 295 294 294 295 296 296 294 293
302 302 304 305 305 304 304 305 302 301 296 293 291 290 296 295 296 298 299 300 303 303 301 299 292 290 290 293 290 288 288 287 292 297 297 299 299 298 297 298 298 298 298 298 297 296 296 295 294 295 296 295 294 294
302 302 304 305 305 305 304 300 299 294 292 290 291 298 296 298 298 300 301 301 305 301 297 297 289 289 296 290 289 294 292 296 298 298 300 301 299 298 298 298 298 298 298 298 296 296 296 297 296 294 293 295 295 294
299 305 305 305 305 301 299 299 295 291 289 292 294 297 299 300 300 300 303 304 303 300 298 294 298 291 289 288 290 297 301 300 300 299 299 300 299 298 298 298 299 298 298 298 297 297 297 296 294 294 295 295 295 293
302 303 304 303 302 297 292 293 295 288 292 297 299 300 299 301 303 303 304 306 307 305 301 298 293 291 293 297 297 299 302 299 298 298 300 300 299 298 298 299 299 298 297 297 297 297 298 298 296 296 295 295 293 294
301 302 302 301 301 293 287 288 293 291 292 296 299 298 298 299 302 301 301 304 303 300 296 293 294 297 297 300 303 302 302 302 300 297 298 299 298 299 298 298 298 299 298 298 297 294 297 297 297 297 296 295 294 293
300 302 301 302 297 295 291 291 290 293 296 296 300 299 298 301 299 299 301 304 299 296 295 297 298 300 303 303 303 304 304 303 300 300 299 297 298 298 297 298 299 298 297 296 295 295 295 295 296 296 296 295 296 295
299 301 298 299 293 293 291 294 293 296 294 296 297 298 296 295 295 296 301 297 296 299 300 299 300 300 301 301 303 304 305 304 302 299 297 296 297 296 296 298 298 296 296 296 296 295 295 296 296 297 296 296 295 295
300 299 295 295 289 287 289 298 292 293 289 292 295 292 291 293 297 301 295 298 299 302 302 301 302 303 302 304 304 304 305 303 301 300 298 299 299 299 298 298 298 297 296 296 297 296 296 291 294 295 296 296 296 295
299 294 290 289 290 288 293 291 293 290 292 291 291 289 292 294 298 295 292 295 299 302 302 302 302 301 302 303 302 302 303 304 302 301 300 299 297 297 298 298 299 299 298 298 297 297 296 296 293 296 295 294 295 294
288 288 289 287 293 289 288 287 288 288 287 290 289 290 294 298 293 292 293 295 300 300 302 303 302 301 300 301 301 303 306 304 301 299 299 299 298 297 297 298 298 298 299 297 296 295 295 296 295 295 295 294 294 294
285 289 288 289 290 289 290 287 288 289 290 289 290 294 297 293 290 290 295 299 301 302 303 302 301 300 301 302 300 301 303 305 303 299 299 299 298 296 295 295 294 295 299 298 297 295 294 295 294 294 294 293 289 294
286 287 292 296 294 293 292 293 294 292 289 288 291 291 291 288 288 294 298 300 299 301 303 304 305 303 302 302 303 305 305 306 304 300 301 301 300 300 299 297 295 296 298 297 296 295 294 294 293 293 293 294 294 293
292 293 288 292 292 294 290 291 290 289 291 294 294 290 289 290 288 295 298 301 303 303 304 305 306 305 305 304 304 304 303 303 304 302 300 300 300 300 300 297 295 287 294 294 294 295 294 294 293 293 293 293 293 294
291 295 294 290 290 291 291 291 292 296 299 297 293 292 292 294 296 296 299 300 302 302 301 302 302 304 304 304 304 302 302 301 298 295 294 293 294 295 296 295 295 296 294 290 282 287 291 292 292 292 293 293 293 294
291 296 292 291 289 289 294 297 297 301 301 300 298 295 295 294 293 294 296 297 297 299 298 301 302 300 299 299 299 300 302 304 307 302 297 295 295 296 297 297 296 295 295 295 293 291 282 288 289 291 291 291 290 290
296 295 292 292 291 295 298 301 300 299 298 296 296 294 291 291 291 291 290 290 292 294 297 298 300 301 299 298 298 297 296 300 302 303 302 300 298 298 298 297 296 296 295 294 293 292 292 292 291 291 289 289 288 287
293 292 291 289 292 296 298 295 294 292 291 290 289 291 292 291 288 289 288 289 292 295 292 298 299 299 301 301 301 301 294 302 302 300 299 299 298 298 297 296 295 294 293 292 292 291 290 289 289 288 287 286 286 285
291 291 292 290 289 289 292 292 290 289 289 289 288 290 290 290 285 287 292 292 290 292 293 295 298 299 298 296 294 290 289 288 286 284 285 285 286 290 294 294 294 293 292 291 289 288 286 285 285 284 284 284 283 282
Wind_Speed
13 13 13 14 13 14 15 13 12 11 11 12 11 10 8 8 7 4 3 3 4 4 11 8 7 6 3 5 4 6 7 3 3 3 3 3 4 4 6 2 4 6 3 5 6 5 7 10 5 3 2 4 8 9
14 14 14 13 13 13 14 13 11 11 11 11 11 10 8 8 9 6 4 2 3 5 9 15 14 15 12 11 3 3 3 2 3 4 3 6 4 5 5 4 3 3 3 1 3 4 0 4 11 1 4 7 8 10
15 14 13 13 14 15 13 12 11 11 11 10 11 9 9 6 12 10 4 1 2 4 10 9 2 4 0 0 3 3 2 0 2 4 3 4 6 6 3 3 4 2 7 5 8 2 2 2 12 8 14 14 15 14
14 14 14 15 15 14 13 12 11 11 11 10 10 9 10 8 14 10 2 2 2 1 4 2 3 1 6 9 10 10 5 3 4 1 1 4 5 2 6 10 10 8 9 10 13 6 5 8 8 13 11 11 14 17
14 13 15 16 15 15 12 11 11 11 10 10 10 9 10 8 14 5 1 1 1 2 3 8 13 3 5 7 8 8 7 4 3 1 3 4 7 4 8 9 9 3 4 4 5 7 6 12 15 14 15 15 16 16
14 14 14 16 16 15 11 11 10 10 9 9 9 10 12 11 14 3 2 5 5 3 3 5 5 7 6 6 4 11 9 3 2 2 4 4 7 4 4 6 6 3 6 5 6 11 10 10 13 16 15 16 17 17
14 14 15 15 16 15 11 11 8 7 6 7 8 11 10 20 4 1 2 2 9 3 2 4 3 6 10 7 4 3 8 3 3 2 6 6 7 4 4 9 5 6 8 11 8 8 10 12 13 15 17 18 17 17
15 15 15 14 15 15 11 9 7 7 7 7 8 2 17 15 9 2 3 7 3 1 4 3 5 4 6 4 4 2 5 6 7 4 4 6 5 4 4 3 5 8 8 9 10 11 12 13 13 16 15 15 16 16
14 15 15 15 15 16 11 9 8 6 5 4 20 17 4 1 2 3 8 7 2 2 2 3 3 2 4 0 2 3 2 2 0 4 4 2 4 5 4 4 8 7 7 11 12 12 11 13 14 13 15 17 17 18
14 14 13 13 15 13 10 8 8 8 2 18 2 1 3 2 14 14 3 2 2 2 2 4 6 3 3 3 0 1 2 3 3 5 3 4 5 4 3 6 4 9 8 10 11 12 12 11 12 15 15 15 15 15
14 12 12 13 15 11 7 7 6 4 13 2 2 3 2 11 2 2 2 4 4 4 5 5 7 4 2 3 1 4 2 3 3 4 4 4 2 5 3 5 7 7 8 8 9 11 10 12 11 13 15 16 14 12
15 11 12 11 13 6 8 5 7 2 1 0 6 5 2 1 2 3 4 4 4 4 6 5 3 2 2 1 1 4 3 4 5 6 4 1 1 5 5 7 8 8 9 9 10 10 12 11 13 13 11 10 12 13
14 11 11 11 10 6 4 3 9 11 4 3 1 4 3 4 4 6 7 5 5 5 5 5 5 2 2 3 4 4 5 2 2 4 1 3 4 4 7 6 8 8 8 9 11 11 12 13 14 11 13 14 14 13
13 12 11 10 8 4 3 3 15 5 1 1 2 3 5 6 6 7 6 1 3 6 5 6 4 3 3 4 4 5 3 5 5 3 4 4 4 6 6 7 7 7 9 10 11 11 12 12 13 14 13 13 13 12
12 13 12 11 9 6 4 9 12 1 1 2 2 5 8 7 7 5 3 1 8 8 6 5 3 2 1 3 3 4 4 5 2 4 4 5 7 7 8 7 7 7 7 8 10 9 10 12 11 10 13 13 13 11
11 13 9 9 7 8 6 12 2 1 0 2 5 5 8 7 8 6 3 5 7 7 6 3 3 2 4 4 4 5 4 4 4 4 6 7 7 7 7 6 6 6 7 8 8 9 10 12 12 12 12 11 13 14
10 4 3 5 6 7 9 3 2 3 3 4 5 9 9 8 3 7 1 5 7 5 3 2 3 1 2 3 3 1 3 5 5 6 8 9 8 7 7 6 6 6 6 6 7 8 10 10 11 12 12 11 10 14
4 3 4 9 6 4 1 1 2 3 5 6 7 6 6 7 8 4 6 2 3 4 2 2 2 3 3 3 2 2 3 3 6 8 8 8 7 6 7 6 6 6 6 5 7 7 9 10 11 9 9 11 10 12
6 5 4 11 5 3 1 2 2 3 6 7 9 9 5 7 3 2 7 7 4 5 3 3 4 3 1 3 5 2 1 2 7 7 7 8 6 7 7 6 6 6 7 6 7 6 6 9 8 8 9 9 9 9
8 5 9 7 0 3 2 2 2 4 4 5 7 7 6 4 5 4 4 5 3 4 3 3 4 2 2 2 5 4 3 6 7 7 8 7 6 5 3 5 4 5 5 7 7 9 8 8 8 8 8 8 9 10
6 6 9 4 1 2 1 2 3 4 5 5 3 4 4 3 5 5 4 4 4 4 4 6 7 7 3 2 5 2 2 2 4 2 7 8 7 7 6 6 7 4 4 5 6 7 8 8 8 8 9 9 9 9
2 7 2 1 1 3 2 3 3 4 3 4 4 3 2 3 4 5 3 3 4 7 6 5 4 6 5 7 4 3 4 3 4 6 9 8 6 5 5 4 4 5 5 5 6 7 6 6 8 8 8 9 9 9
6 2 2 2 2 3 2 4 4 2 3 2 2 2 3 3 4 3 3 5 7 8 6 6 8 9 5 5 5 4 7 7 4 5 4 4 6 5 4 4 5 5 5 4 5 5 6 5 6 9 9 9 9 9
2 4 4 4 4 4 3 4 3 2 2 2 3 4 4 4 4 4 5 6 6 2 2 4 6 6 6 5 6 5 6 6 5 6 4 5 6 4 4 4 5 6 5 4 4 5 5 6 7 8 9 10 10 10
3 4 3 3 4 5 6 5 5 3 4 3 3 5 3 3 4 4 5 2 2 3 3 5 6 4 6 7 5 6 5 6 7 7 6 4 6 5 5 5 6 4 2 5 3 5 5 6 7 7 9 9 12 12
4 5 6 7 5 5 6 5 6 7 5 5 5 3 3 2 3 4 3 4 4 5 4 1 2 3 3 6 7 5 7 5 5 7 7 7 6 5 6 6 6 5 4 4 4 5 6 6 7 9 9 9 8 11
3 5 5 5 3 4 3 1 3 3 4 3 2 3 3 4 4 4 2 5 5 5 5 4 2 4 7 7 6 4 5 5 6 7 7 6 5 5 5 3 8 8 5 5 5 5 5 5 6 7 7 7 8 9
4 4 6 6 4 4 3 2 4 5 5 4 3 7 3 1 3 2 3 4 3 5 4 2 3 1 5 8 7 7 7 7 10 10 9 8 6 8 10 9 10 12 9 7 6 6 6 6 5 5 6 6 6 6
5 3 2 5 3 4 5 4 4 3 3 1 2 2 3 3 4 6 5 6 4 3 2 1 1 2 6 4 4 6 7 8 11 13 12 8 7 6 6 7 6 7 7 7 6 5 6 5 6 6 7 6 8 7
4 4 4 7 5 6 5 5 3 5 5 4 4 3 2 3 4 6 7 6 5 4 5 3 4 4 6 7 7 7 5 4 4 4 7 8 8 7 6 6 5 5 3 5 7 7 2 4 5 2 5 7 7 7
3 6 4 5 5 4 3 5 5 6 4 3 4 3 2 3 2 3 4 4 5 5 5 4 4 2 5 7 7 7 7 6 7 10 10 9 8 7 6 6 5 4 4 4 5 5 4 6 6 6 7 8 9 9
3 5 4 5 2 4 5 3 2 2 2 1 1 1 3 3 2 2 5 5 6 6 7 2 4 5 5 4 5 5 7 7 9 9 12 9 9 8 7 6 5 5 5 7 8 8 8 9 8 8 8 10 10 11
1 1 0 1 0 1 2 2 2 2 1 2 1 1 1 2 3 2 1 3 2 4 6 8 8 8 12 13 11 10 12 12 14 12 16 13 9 7 7 6 6 7 10 9 9 9 11 12 10 10 10 10 11 11
Wind_Direction
311 309 297 290 293 300 301 296 294 295 302 304 307 302 294 227 217 264 317 20 308 277 286 305 326 273 267 262 268 356 283 32 311 258 287 348 295 331 277 188 195 193 222 214 225 237 247 359 307 336 11 308 302 326
309 300 298 301 302 300 297 297 291 285 291 295 297 301 281 228 202 223 261 70 354 269 299 317 285 271 258 246 216 215 345 283 311 291 13 302 315 296 328 295 11 277 257 309 266 310 224 306 300 305 300 287 334 329
308 306 304 305 307 302 296 295 292 288 281 287 288 289 298 237 193 204 291 151 269 306 279 228 227 209 188 296 109 227 245 209 3 2 345 305 280 321 292 288 280 281 210 227 230 158 272 198 277 354 341 357 354 344
303 305 308 310 307 303 297 297 289 286 281 282 282 285 290 254 188 188 293 60 68 3 308 277 120 343 186 176 178 200 128 96 67 345 285 267 275 316 294 304 298 291 264 308 291 332 309 89 340 352 335 332 338 335
305 308 311 312 311 309 295 294 294 289 276 275 275 280 284 213 177 161 335 2 146 291 287 298 307 236 160 164 211 152 143 137 128 200 234 250 271 322 274 281 281 6 293 342 325 359 335 332 352 336 341 339 331 340
309 306 308 311 312 311 304 299 286 284 273 271 277 278 281 167 134 120 233 191 197 227 267 299 358 221 163 153 127 161 153 108 127 221 260 248 271 253 280 286 76 313 63 23 349 11 349 330 328 335 333 340 354 331
307 308 308 309 312 313 309 309 295 300 288 281 284 283 168 146 143 168 25 102 153 128 235 267 268 164 174 185 190 160 151 144 156 233 245 245 260 218 264 275 20 342 15 30 30 352 326 324 335 341 357 350 326 324
295 299 304 308 312 313 315 312 295 287 294 292 298 248 130 110 113 116 93 82 97 214 270 289 276 216 199 156 185 14 186 184 194 247 255 262 285 222 259 45 10 31 2 355 344 342 341 348 350 359 344 313 335 339
298 292 292 301 307 310 305 314 301 284 291 310 124 114 89 23 130 89 118 121 68 344 272 203 269 287 216 83 96 139 330 232 341 234 238 264 251 224 274 14 43 17 353 354 349 345 358 2 348 338 336 339 345 347
300 295 295 306 301 295 275 271 267 265 216 137 115 130 139 133 119 136 149 141 194 182 248 254 237 257 314 41 96 86 206 220 233 213 165 227 257 103 94 46 21 25 8 360 347 351 355 330 349 347 339 360 350 341
304 300 303 309 312 303 281 254 265 265 156 246 101 71 27 141 210 202 184 240 169 219 209 236 231 227 50 295 75 239 216 258 263 174 218 217 163 107 83 39 45 21 8 3 2 353 355 8 342 349 360 353 343 21
307 302 307 304 307 304 312 259 159 126 33 336 99 106 122 213 209 231 205 191 219 246 185 204 168 136 105 321 248 233 242 214 254 168 217 195 235 82 56 49 37 24 20 7 12 6 15 353 7 17 342 350 26 23
303 302 304 306 309 279 289 248 148 130 159 32 191 146 200 175 207 226 197 192 205 199 162 158 154 101 143 207 243 243 243 245 221 229 182 86 127 75 52 29 38 35 22 27 27 19 8 11 18 8 1 17 28 13
303 300 300 299 292 290 281 227 148 146 247 168 149 188 229 185 234 220 255 213 133 114 149 156 114 172 202 208 257 252 256 207 233 219 79 150 109 81 68 42 43 34 38 37 31 21 20 18 25 14 17 27 27 18
297 296 292 278 252 237 248 168 150 116 261 181 230 240 217 249 267 280 165 352 125 143 125 118 97 184 263 259 249 290 243 247 30 66 128 89 75 61 60 54 44 42 39 39 38 24 22 31 37 19 31 27 21 26
300 295 245 242 205 206 212 143 83 57 199 252 217 266 255 261 265 246 169 191 119 111 107 79 134 216 227 238 215 241 285 29 84 140 135 120 92 77 73 67 58 46 44 48 45 26 24 29 32 29 29 30 24 12
304 255 33 160 161 132 126 102 117 194 236 230 247 235 261 280 356 336 337 254 153 152 120 182 222 243 254 239 219 312 338 110 160 100 80 86 97 101 95 77 68 59 51 53 60 41 28 26 32 29 26 22 35 19
249 283 131 126 137 93 39 145 176 190 246 237 253 258 236 234 157 205 299 284 139 130 144 248 317 234 249 293 335 349 91 183 95 103 106 110 110 117 103 92 88 71 63 37 51 54 41 25 26 25 26 21 19 30
311 332 169 147 126 112 85 190 192 234 238 257 243 255 223 269 274 237 213 135 146 128 143 217 243 249 231 352 308 28 96 290 123 116 108 99 100 107 114 110 97 97 86 52 11 30 45 50 35 21 22 26 17 31
268 287 153 136 262 111 136 247 295 260 264 248 244 265 281 265 277 260 240 136 142 135 160 215 255 278 317 265 291 191 167 221 143 156 148 137 130 149 118 111 101 155 148 152 82 17 40 24 42 19 27 36 33 23
173 155 147 153 104 112 194 212 211 241 284 276 291 287 246 261 265 271 279 157 185 208 220 216 255 274 274 189 265 22 139 258 243 164 152 134 153 127 159 160 195 134 100 73 67 65 45 33 355 41 22 30 47 30
107 125 121 145 142 170 234 239 271 291 239 277 296 281 291 289 279 253 240 210 224 238 237 230 233 267 230 244 210 221 136 201 131 114 90 118 139 153 153 160 133 93 75 73 68 69 44 45 3 25 32 27 32 47
146 125 122 173 151 183 249 212 230 220 248 302 283 239 215 236 234 209 227 223 239 240 231 219 211 239 244 230 214 206 169 188 189 126 135 173 106 102 125 123 133 133 112 75 72 59 73 22 51 30 17 19 34 40
115 173 175 195 200 177 197 188 180 239 250 269 251 256 218 217 167 219 239 238 251 207 181 217 184 212 208 194 218 193 190 186 176 149 187 124 135 139 126 119 92 73 75 69 61 73 46 48 23 39 35 20 9 36
176 179 207 172 217 180 196 178 184 179 256 195 248 240 246 175 204 232 242 154 109 182 163 181 197 218 214 185 205 193 155 218 180 165 137 147 111 126 132 125 112 105 120 111 69 57 54 42 33 23 52 35 8 13
219 172 198 202 188 206 200 179 200 206 210 211 229 296 351 315 257 244 63 20 59 51 26 17 223 265 149 180 198 185 163 205 190 157 154 135 155 167 150 147 141 123 81 50 55 49 51 33 39 21 23 42 31 11
213 193 204 236 231 218 255 193 166 219 214 220 192 215 208 228 230 65 78 38 23 5 16 311 231 187 177 195 183 147 160 174 193 140 127 130 117 76 60 184 134 103 84 74 69 52 40 36 41 32 20 24 39 24
269 207 187 200 201 232 254 248 199 218 222 217 201 196 206 320 68 325 31 40 12 344 1 8 15 60 177 169 170 167 169 135 105 105 93 84 75 68 72 71 66 66 71 42 12 50 33 36 29 39 26 26 26 53
239 224 180 176 184 232 224 241 249 237 320 163 267 86 80 76 25 9 357 343 358 1 25 232 322 242 165 164 148 153 130 142 145 143 147 138 133 115 118 127 146 121 106 95 58 43 58 51 44 27 6 41 13 22
223 228 205 196 197 227 226 218 305 65 66 75 115 122 131 87 46 1 350 351 345 21 341 205 240 170 154 148 140 113 114 104 121 172 151 141 125 133 127 123 121 115 123 148 155 139 200 223 213 221 38 48 32 8
189 194 216 212 237 256 295 81 74 80 57 59 34 74 95 119 109 36 8 334 312 306 299 227 224 240 180 169 144 153 150 151 142 107 104 113 127 127 114 110 102 98 88 75 68 43 40 75 43 49 52 39 40 28
237 207 211 222 215 74 39 42 36 70 88 89 83 115 162 159 100 53 7 348 6 7 4 258 177 171 180 179 166 171 135 125 122 129 126 128 124 128 124 102 102 104 94 77 57 50 54 57 57 44 41 39 36 31
122 331 227 79 235 224 146 137 137 127 134 129 122 92 57 46 90 62 32 357 14 18 18 9 41 61 62 72 85 78 71 76 72 69 69 59 50 80 106 103 104 86 75 70 72 65 57 59 56 49 45 43 39 32